Location: Lynch Observatory
(39.9540°N, 75.1861°W)
Time: 19:20:57
(UTC-04:00)

Hubble Space Telescope - Pass Details

Date: 10 August 2022
Orbit: 532 x 535 km, 28.5° (Epoch: 23 September)

Event Time Altitude Azimuth Distance (km) Brightness Sun altitude
Rises 21:30:10 0° 245° (WSW) 2,667 4.7 -15.4°
Reaches altitude 10° 21:33:09 10° 223° (SW) 1,776 3.5 -15.8°
Maximum altitude 21:35:37 15° 186° (S) 1,460 2.7 -16.2°
Enters shadow 21:35:46 15° 183° (S) 1,461 2.7 -16.2°
